Regional Weather Roundup
Issued by NWS

Home | Current Version | Previous Version | Text Only | Print | Product List | Glossary Off
Versions: 1 2 3 4 5 6 7 8 9 10 11 12 13 14 15 16 17 18 19 20 21 22 23 24 25 26 27 28 29 30 31 32 33 34 35 36 37 38 39 40 41 42 43 44 45 46 47 48 49 50

000
ASUS43 KDMX 231307
RWRIA

WEATHER ROUNDUP FOR IOWA
NATIONAL WEATHER SERVICE DES MOINES IA
800 AM CDT SAT MAY 23 2015

NOTE: "FAIR" INDICATES FEW OR NO CLOUDS BELOW 12,000 FEET WITH NO
SIGNIFICANT WEATHER AND/OR OBSTRUCTIONS TO VISIBILITY.

* - THESE STATIONS ARE NOT NWS STATIONS...THUS NOT UNDER NWS
QUALITY CONTROL.  THEY ALSO DO NOT REPORT WEATHER SUCH
AS PRECIPITATION OR FOG.

IAZ001>003-012>014-020>022-031>034-043>046-231400-
   NORTHWEST IOWA

CITY           SKY/WX    TMP DP  RH WIND       PRES   REMARKS
CARROLL *      CLOUDY    57  52  82 SE8       30.24S
CHEROKEE *     CLOUDY    59  52  77 SE7       30.23S
DENISON *      CLOUDY    59  54  82 SE7       30.21S
LE MARS *      CLOUDY    59  52  77 SE7       30.22S
ORANGE CITY *  CLOUDY    55  50  82 SE3       30.22S
SHELDON *      CLOUDY    57  34  41 SE7       30.22R
SIOUX CITY     CLOUDY    58  50  75 SE7       30.21R
SPENCER        CLOUDY    58  50  75 SE9       30.24S
STORM LAKE *   CLOUDY    57  50  77 SE8       30.25R
$$

IAZ055>058-069>071-079>083-090>094-231400-
   SOUTHWEST IOWA

CITY           SKY/WX    TMP DP  RH WIND       PRES   REMARKS
ATLANTIC *     CLOUDY    61  52  72 S8        30.23R
AUDUBON *      MOSUNNY   59  54  82 SE3       30.24S
CLARINDA *     CLOUDY    59  54  82 SE6       30.24S
COUNCIL BLFS * CLOUDY    59  55  88 S10       30.22S
CRESTON *      CLOUDY    59  54  82 SE7       30.25S
HARLAN  *      CLOUDY    59  57  94 S5        30.26R
LAMONI         CLOUDY    60  53  77 SE7       30.25S
RED OAK *      CLOUDY    61  54  77 S7        30.23R
SHENANDOAH *   LGT RAIN  57  55  94 SE7       30.23S
$$

IAZ047>049-059>061-072>074-084-231400-
   CENTRAL IOWA

CITY           SKY/WX    TMP DP  RH WIND       PRES   REMARKS
AMES           CLOUDY    59  49  69 SE7       30.27R
ANKENY *       CLOUDY    61  52  72 SE5       30.26S
CHARITON *     PTSUNNY   59  54  82 SE6       30.27R
DES MOINES     PTSUNNY   62  50  64 E8        30.26S
GRINNELL*      PTSUNNY   59  50  72 CALM      30.29R
KNOXVILLE *    CLOUDY    57  50  77 E6        30.27R
MARSHALLTOWN   MOSUNNY   59  51  75 SE5       30.28R
PELLA *        MOSUNNY   59  55  88 SE3       30.29R
PERRY *        CLOUDY    59  52  77 E5        30.26R
$$

IAZ004>006-015-016-023>025-035-036-231400-
   NORTH CENTRAL IOWA

CITY           SKY/WX    TMP DP  RH WIND       PRES   REMARKS
ALGONA *       CLOUDY    59  50  72 SE6       30.26S
CLARION *      CLOUDY    61  46  59 SE8       30.27R
ESTHERVILLE    CLOUDY    55  48  77 SE8       30.25R
FORT DODGE *   CLOUDY    59  48  67 SE7       30.27R
MASON CITY     CLOUDY    60  48  64 VRB3      30.28R
FOREST CITY *  PTSUNNY   57  50  77 S3        30.27R
IOWA FALLS *   CLOUDY    61  46  59 E7        30.29R
$$

IAZ007>011-017>019-026>030-037>042-050>054-066-231400-
   NORTHEAST IOWA

CITY           SKY/WX    TMP DP  RH WIND       PRES   REMARKS
CEDAR RAPIDS   SUNNY     62  53  72 CALM      30.28R
CHARLES CITY * CLOUDY    61  46  59 NE7       30.28R
CLINTON *      MOSUNNY   61  43  51 SE8       30.32S
DECORAH *      SUNNY     59  46  63 S6        30.27S
DUBUQUE        MOSUNNY   58  42  55 S10       30.30S
MONTICELLO *   MOSUNNY   61  45  55 SE6       30.29S
OELWEIN *      PTSUNNY   59  48  67 SE6       30.29R
WATERLOO       PTSUNNY   58  50  75 S6        30.27S
$$

IAZ064-065-067-068-078-231400-
   EAST CENTRAL IOWA

CITY           SKY/WX    TMP DP  RH WIND       PRES   REMARKS
DAVENPORT      SUNNY     61  47  59 SE7       30.30S
IOWA CITY      SUNNY     62  52  69 CALM      30.31R
MT. PLEASANT * SUNNY     63  54  72 CALM      30.31R
MUSCATINE *    SUNNY     63  55  77 CALM      30.30S
QUAD CITIES    SUNNY     61  48  62 CALM      30.29S
$$

IAZ062-063-075>077-085>089-095>099-231400-
   SOUTHEAST IOWA

CITY           SKY/WX    TMP DP  RH WIND       PRES   REMARKS
BURLINGTON     SUNNY     63  56  78 CALM      30.30R
FAIRFIELD *    MOSUNNY   63  54  72 CALM      30.30R
FORT MADISON * SUNNY     63  57  82 CALM      30.32R
KEOKUK *       SUNNY     63  55  77 CALM      30.30R
OSKALOOSA *      N/A     63  52  67 E5        30.29R
CENTERVILLE *  MOSUNNY   59  59 100 SE8       30.30R
OTTUMWA        MOSUNNY   59  54  83 SE3       30.29R
WASHINGTON *   SUNNY     63  52  67 CALM      30.31S
$$

ABBREVIATIONS USED IN REMARKS
   TC - TEMPERATURES IN CELSIUS
  WCI - WIND CHILL INDEX
   HX - HEAT INDEX
  VSB - VISIBILITY
$$




USA.gov is the U.S. government's official web portal to all federal, state and local government web resources and services.